Overview Statistics Trail Chart Weather Telemetry Raw packets
 

This is the latest recevied weather packets stored in our database for station/object K7PMV-13. If no packets are shown the sender has not sent any weather packets the latest 10 day(s).

<< 42 43 44 45 46 47 48 >>
Time Temp. Humidity Pressure Rain* Wind** Luminosity Snow
1777389961 18.89° C 36% 1013.9 hPa 0 mm - 512 W/m² -
1777389658 18.33° C 35% 1013.9 hPa 0 mm - 494 W/m² -
1777389355 18.33° C 36% 1013.8 hPa 0 mm - 476 W/m² -
1777389050 18.33° C 37% 1013.8 hPa 0 mm - 459 W/m² -
1777388747 17.78° C 37% 1013.7 hPa 0 mm - 445 W/m² -
1777388445 17.78° C 39% 1013.7 hPa 0 mm - 425 W/m² -
1777388142 17.22° C 41% 1013.5 hPa 0 mm - 408 W/m² -
1777387839 16.67° C 40% 1013.5 hPa 0 mm - 388 W/m² -
1777387537 16.67° C 40% 1013.4 hPa 0 mm - 369 W/m² -
1777387234 16.11° C 41% 1013.2 hPa 0 mm - 350 W/m² -
1777386931 15.56° C 44% 1013.3 hPa 0 mm - 330 W/m² -
1777386628 15.56° C 44% 1013.3 hPa 0 mm - 72 W/m² -
1777386319 15° C 44% 1013.3 hPa 0 mm - 39 W/m² -
1777386016 14.44° C 45% 1013.2 hPa 0 mm - 37 W/m² -
1777385713 14.44° C 45% 1013.2 hPa 0 mm - 35 W/m² -
1777385410 14.44° C 44% 1013.2 hPa 0 mm - 33 W/m² -
1777385108 13.89° C 46% 1013.2 hPa 0 mm - 33 W/m² -
1777384798 13.89° C 47% 1013.2 hPa 0 mm - 32 W/m² -
1777384495 13.89° C 48% 1013.1 hPa 0 mm - 30 W/m² -
1777384192 13.89° C 50% 1013.1 hPa 0 mm - 28 W/m² -
1777383890 13.33° C 50% 1013.1 hPa 0 mm - 28 W/m² -
1777383588 12.78° C 49% 1013 hPa 0 mm - 26 W/m² -
1777383286 12.78° C 51% 1012.9 hPa 0 mm - 25 W/m² -
1777382983 12.78° C 51% 1012.7 hPa 0 mm - 23 W/m² -
1777382673 12.22° C 50% 1012.6 hPa 0 mm - 21 W/m² -

* Rain latest hour (hover to see other rain measurements)
** Current wind speed in m/s (hover to see current wind gust speed)